User: anonymous   Login
Location: Lawrence Hall of Science
(37.8785°N, 122.2415°W)
Time: 07:01:58
(UTC-08:00)
Language:

Cosmos 2098 Rocket - Orbit

View from above orbital plane
View from above orbital plane
View from above satellite
View from above satellite

Ground track
Ground track

The orbit data is extracted from the following two-line orbital elements,

1 20775U 90078B   17018.45518959  .00001221  00000-0  58089-4 0  9998
2 20775  82.9299 170.8508 0592986  83.2299 283.5964 14.29951297327360
Epoch (UTC): 18 January 2017 10:55:28
Eccentricity: 0.0592986
inclination: 82.9299°
perigee height: 367 km
apogee height: 1217 km
right ascension of ascending node: 170.8508°
argument of perigee: 83.2299°
revolutions per day: 14.29951297
mean anomaly at epoch: 283.5964°
orbit number at epoch: 32736

The dashed part of the orbit path shows where the satellite is in the earth's shadow,  

DLR